#timestamp,LO_Frequency,Hit 
1505448015.0,286046996.7,N
1505448015.9,286046996.7,N
1505448035.8,286046996.2,N
1505448055.6,286046997.1,N
1505448075.4,286047001.4,N
1505448095.3,286047002.4,N
1505448115.1,286047001.9,N
1505448116.0,286047001.9,N
1505448135.8,286047004.3,N
1505448155.7,286047001.5,N
1505448175.5,286047006.0,N
1505448195.3,286047005.9,N
1505448215.2,286047007.1,N
1505448235.9,286046999.6,N
1505448255.7,286046992.3,N
1505448275.5,286046992.7,N
1505448295.4,286046994.0,N
1505448315.2,286047002.7,N
1505448335.0,286047003.3,N
1505448335.9,286047003.3,N
1505448355.8,286047008.6,N
1505448375.6,286047008.7,N
1505448395.4,286047007.6,N
1505448415.3,286047005.3,N
1505448435.1,286047007.1,N
1505448455.8,286047010.1,N
1505448475.7,286047013.5,N
1505448495.5,286047011.9,N
1505448515.3,286047011.7,N
1505448535.2,286047010.4,N
1505448555.9,286047012.4,N
1505448575.7,286047015.3,N
1505448595.6,286047016.5,N
1505448615.4,286047012.8,N
1505448635.2,286047014.6,N
1505448655.0,286047017.1,N
1505448655.9,286047017.1,N
1505448675.8,286047013.8,N
1505448695.6,286047010.4,N
1505448715.4,286047010.3,N
1505448735.3,286047011.9,N
1505448755.1,286047010.1,N
1505448775.8,286047006.5,N
1505448795.7,286047011.3,N
1505448815.5,286047013.4,N
1505448835.3,286047012.5,N
1505448855.2,286047012.5,N
1505448875.9,286047016.0,P
1505448895.7,286047004.3,N
1505448915.6,286047004.3,N
1505448935.4,286047001.3,N
1505448955.2,286046998.5,N
1505448975.1,286047000.2,N
1505448976.0,286047000.2,N
1505448995.8,286047004.0,N
1505449015.6,286047001.1,N
1505449035.5,286046998.9,N
1505449055.3,286046995.6,N
1505449075.1,286046999.6,N
1505449095.8,286046996.9,N
1505449115.7,286046995.8,N
1505449135.5,286046990.5,N
1505449155.3,286046989.4,N
1505449175.2,286046986.6,N
1505449195.9,286046985.9,N
1505449215.7,286046990.7,N
1505449235.6,286046992.7,N
1505449255.4,286046994.2,N
1505449275.2,286046997.6,N
1505449295.1,286046997.0,N
1505449296.0,286046997.0,N
1505449315.8,286046997.9,N
1505449335.6,286046995.1,N
1505449355.4,286046996.8,N
1505449375.3,286046998.3,N
1505449395.1,286047002.7,N
1505449415.8,286046998.2,N
1505449435.7,286046998.9,N
1505449455.5,286046998.8,N
1505449475.3,286046995.4,N
1505449495.2,286046994.5,N
1505449515.9,286046989.3,N
1505449535.7,286046989.6,N
1505449555.6,286046987.4,N
1505449575.4,286046987.7,N
1505449595.2,286046989.3,N
1505449615.1,286046990.8,N
1505449616.0,286046990.8,N
1505449635.8,286046990.5,N
1505449655.6,286046990.7,N
1505449675.5,286046993.2,N
1505449695.3,286046990.0,N
1505449715.1,286046989.9,N
1505449735.8,286046991.3,N
1505449755.7,286046988.6,N
1505449775.5,286046985.5,P
1505449795.4,286046987.3,P
1505449815.2,286046986.4,P
1505449835.0,286046986.6,P
1505449835.9,286046986.6,P
1505449855.8,286047002.5,P
1505449875.6,286046997.0,N
1505449895.4,286046994.5,N
1505449915.3,286046993.7,N
1505449935.1,286046996.3,N
1505449936.0,286046996.3,N
1505449955.8,286046996.6,N
1505449975.7,286046995.3,N
1505449995.5,286046996.4,N
1505450015.3,286046993.3,N
1505450035.1,286046993.9,N
1505450055.9,286046994.6,N
1505450075.7,286046993.6,N
1505450095.5,286046993.4,N
1505450115.4,286046994.4,N
1505450135.2,286046997.2,N
1505450155.0,286046997.5,N
1505450155.9,286046997.5,N
1505450175.8,286046995.3,N
1505450195.6,286046996.5,N
1505450215.4,286047000.7,N
1505450235.3,286047002.0,N
1505450255.1,286047003.9,N
1505450256.0,286047003.9,N
1505450275.8,286047004.4,N
1505450295.7,286047002.1,N
1505450315.5,286047004.7,N
1505450335.3,286047004.6,N
1505450355.2,286047003.0,N
1505450375.9,286047009.1,N
1505450395.7,286047005.9,N
1505450415.5,286047000.9,N
1505450435.4,286046992.0,N
1505450455.2,286046994.5,N
1505450475.0,286046996.8,N
1505450475.9,286046996.8,N
1505450495.8,286047003.9,N
1505450515.6,286047006.4,N
1505450535.4,286047010.8,N
1505450555.3,286047010.4,N
1505450575.1,286047014.0,N
1505450595.8,286047015.3,N
1505450615.7,286047013.1,N
1505450635.5,286047014.6,N
1505450655.3,286047014.3,N
1505450675.2,286047020.2,P
1505450695.9,286047018.4,N
1505450715.7,286047017.3,N
1505450735.6,286047020.4,P
1505450755.4,286047004.5,N
1505450775.2,286047004.1,N
1505450795.1,286047004.0,N
1505450796.0,286047004.0,N
1505450815.8,286047003.0,N
1505450835.6,286047001.5,N
1505450855.5,286047005.4,N
1505450875.3,286047004.4,N
1505450895.1,286047003.4,N
1505450915.9,286047004.0,N
1505450935.7,286047002.2,N
1505450955.5,286046998.2,N
1505450975.3,286047002.1,N
1505450995.2,286046999.3,N
1505451015.0,286047001.4,N
1505451015.9,286047001.4,N
1505451035.7,286046999.8,N
1505451055.6,286046998.3,N
1505451075.4,286047001.2,N
1505451095.2,286047002.7,N
1505451115.1,286047001.4,N
1505451116.0,286047001.4,N
1505451135.8,286047003.0,N
1505451155.6,286047002.3,N
1505451175.5,286046998.3,N
1505451195.3,286046995.3,N
1505451215.1,286046995.3,N
1505451235.9,286047000.3,N
1505451255.7,286047000.2,N
1505451275.5,286046999.2,N
1505451295.4,286046999.6,N
1505451315.2,286046992.6,N
1505451335.0,286046992.5,N
1505451335.9,286046992.5,N
1505451355.8,286046998.0,N
1505451375.6,286046994.4,N
1505451395.4,286046996.5,N
1505451415.2,286046997.4,N
1505451435.1,286047000.7,N
1505451436.0,286047000.7,N
1505451455.8,286046999.2,N
1505451475.6,286047000.0,N
1505451495.5,286047000.0,N
1505451515.3,286046998.1,N
1505451535.1,286046998.6,N
1505451555.9,286046994.9,N
1505451575.7,286046994.8,N
1505451595.5,286046988.9,P
